EDP MEIA MARATONA DE COIMBRA - 10K

Tabela de Prémios


Dorsal Lugar Nome Sexo Categoria Clube Tempo Oficial Tempo Chip Fotografia Certificado
5054 170 Paula Cardoso Geral F-V45 Viseu360 00:43:26.770 00:42:43.487 Ver Descarregar
4601 260 Cecilia Monteiro Geral F-V45 Guardarunners 00:46:23.777 00:45:01.470 Ver Descarregar
4401 324 Maria Simoes Geral F-V45 Individual 00:48:33.030 00:48:07.333 Ver Descarregar
4040 377 Florbela Rouxinol Geral F-V45 Out 2 Run 00:50:08.783 00:49:39.560 Ver Descarregar
4339 399 Brigite Campos Geral F-V45 Jumbo De Coimbra 00:50:38.477 00:48:24.427 Ver Descarregar
4244 443 Rita Lemos Geral F-V45 Individual 00:51:27.800 00:50:01.107 Ver Descarregar
4146 444 Anabela Fernandes Geral F-V45 Grupo Alegre Unido Bajouca 00:51:29.040 00:50:57.727 Ver Descarregar
5076 470 Cristina Moreira Geral F-V45 Individual 00:51:59.040 00:50:52.103 Ver Descarregar
4408 475 Goreti Freitas Geral F-V45 Cmv Runners 00:52:06.290 00:51:53.703 Ver Descarregar
4563 489 Teresa Tavares Geral F-V45 Ipocrunners 00:52:25.547 00:51:54.797 Ver Descarregar
4336 541 Florbela Fernandes Geral F-V45 Tribo Nr 00:53:23.447 00:51:54.837 Ver Descarregar
4842 551 Rosalina Costa Geral F-V45 M. Costas Grupo 00:53:35.793 00:52:03.076 Ver Descarregar
4837 553 Cindy Silva Geral F-V45 M. Costas Grupo 00:53:36.043 00:52:03.050 Ver Descarregar
4952 565 Anabela Branco Geral F-V45 Individual 00:53:47.293 00:51:19.563 Ver Descarregar
4294 567 Anabela Amaral Geral F-V45 Individual 00:53:51.443 00:52:22.310 Ver Descarregar
4151 581 Célia Arneiro Geral F-V45 Grupo Alegre Unido Bajouca 00:54:11.800 00:51:39.207 Ver Descarregar
4716 605 Cristina Melo Geral F-V45 Individual 00:54:45.687 00:53:01.410 Ver Descarregar
4300 611 Sandra Rodrigues Geral F-V45 Individual 00:54:58.173 00:53:45.230 Ver Descarregar
4402 629 Rosa Henriques Geral F-V45 Individual 00:55:59.547 00:53:12.814 Ver Descarregar
4691 651 Anabela Cruz Geral F-V45 Individual 00:57:03.050 00:55:52.253 Ver Descarregar
4696 665 Lucia Oliveira Geral F-V45 Convencidos.Com 00:57:29.620 00:56:16.543 Ver Descarregar
4776 683 Isabel Pinto Geral F-V45 Jumbo De Coimbra 00:58:04.563 00:56:30.770 Ver Descarregar
2485 716 Maria Maduro Geral F-V45 Individual 00:59:06.807 00:57:42.950 Ver Descarregar
4747 735 Liliana Pinto Geral F-V45 Aergóis Trail Running 01:00:00.063 00:58:46.596 Ver Descarregar
4953 739 Elsa Correia Geral F-V45 Individual 01:00:13.557 00:56:51.110 Ver Descarregar
4368 742 Cristina Lourenço Geral F-V45 Farmácia Lima Da Silva 01:00:22.310 01:00:02.033 Ver Descarregar
4547 761 Maria Rodrigues Geral F-V45 Individual 01:00:48.313 00:59:26.133 Ver Descarregar
4242 771 Amélia Amaral Geral F-V45 Diver 01:01:17.560 00:59:16.410 Ver Descarregar
4225 773 Ana Vieira Geral F-V45 Cskd-Condeixa Shukokai Karate-Do 01:01:30.060 00:59:12.420 Ver Descarregar
4138 775 Ana Cordeiro Geral F-V45 Individual 01:01:36.077 00:59:11.784 Ver Descarregar
5026 785 Paula Fonseca Geral F-V45 Resilientes 01:02:04.810 01:01:37.843 Ver Descarregar
5013 802 Daniela Gonçalves Geral F-V45 Individual 01:03:15.320 01:00:16.943 Ver Descarregar
4761 807 Cristina Mendes Geral F-V45 Navr 01:03:32.370 00:59:38.683 Ver Descarregar
4376 835 Susana Cruz Geral F-V45 Onda Team 01:05:49.597 01:03:30.364 Ver Descarregar
4737 840 Maria Martins Geral F-V45 Individual 01:06:25.077 01:04:12.287 Ver Descarregar
5001 850 Paula Borges Geral F-V45 Individual 01:07:50.830 01:05:51.437 Ver Descarregar
4210 872 Alexandra Bizarro Geral F-V45 Atitude 01:10:21.827 01:09:02.510 Ver Descarregar
4004 888 Rosaclara Carvalhais Geral F-V45 Individual 01:12:17.123 01:11:34.620 Ver Descarregar
4853 941 Eugénia Pinto Geral F-V45 Individual 01:33:36.117 01:28:40.890 Ver Descarregar
4347 949 Ana Vieira Geral F-V45 Cluve 01:57:56.403 01:56:28.720 Ver Descarregar